Hourly Data Report for September 19, 2017

All times are specified in Local Standard Time (LST). Add 1 hour to adjust for Daylight Saving Time where and when it is observed.

SUMMERSIDE
PRINCE EDWARD ISLAND

46°26'28.000" N
63°50'17.000" W
12.20 m
8300596
71702
WSD

Download Data

Hourly Data (September 2017)
Hourly Data Report for September 19, 2017
Temp Definition
°C
Dew Point Temp Definition
°C
Rel Hum Definition
%
Wind Dir Definition
10's deg

Wind Spd Definition
km/h
Visibility Definition
km
Stn Press Definition
kPa
Hmdx Definition


Wind Chill Definition


Weather Definition


TIME
00:00 18.1 16.9 92 19 10   102.33     LegendNANA
01:00 17.9 16.6 92 18 11   102.35     LegendNANA
02:00 17.3 16.2 93 20 18   102.31     LegendNANA
03:00 17.0 16.1 94 20 12   102.29     LegendNANA
04:00 17.3 15.7 90 18 13   102.28     LegendNANA
05:00 17.2 15.9 92 18 15   102.29     LegendNANA
06:00 17.1 15.9 93 19 11   102.33     LegendNANA
07:00 17.2 16.3 94 20 10   102.35     LegendNANA
08:00 17.5 16.2 92 19 13   102.36     LegendNANA
09:00 18.5 16.2 87 18 14   102.34     LegendNANA
10:00 18.1 16.4 90 17 15   102.35     LegendNANA
11:00 18.8 16.5 86 17 14   102.31     LegendNANA
12:00 18.9 16.7 87 18 14   102.27     LegendNANA
13:00 20.0 16.8 82 18 13   102.20 25   LegendNANA
14:00 19.4 17.3 88 18 15   102.15     LegendNANA
15:00 19.4 17.2 87 17 15   102.08     LegendNANA
16:00 19.3 17.2 88 17 14   102.04     LegendNANA
17:00 19.6 17.8 89 18 12   102.03     LegendNANA
18:00 19.7 18.0 90 18 8   102.00     LegendNANA
19:00 18.9 17.6 92 29 2   102.01     LegendNANA
20:00 19.1 18.1 94 16 7   102.01     LegendNANA
21:00 19.4 18.4 94 17 14   102.00     LegendNANA
22:00 19.7 18.6 94 17 17   101.93     LegendNANA
23:00 19.7 18.6 94 18 18   101.93     LegendNANA

Notes on Data Quality.

Legend

  • E = Estimated
  • M = Missing
  • NA = Not Available
  • ‡ = Partner data that is not subject to review by the National Climate Archives
Date modified: